sat.trackr.live / text

‹ back to catalog

STARLINK-36529

NORAD 67457 · 2026-008N

PAYLOAD ACTIVE UNKNOWN

§ Identity

Operator
Country
US
Launch date
2026-01-14
Launch site
AFETR
Launch vehicle
Mass (kg)
RCS (m²)

Purposes: comms

External: N2YO · Heavens-Above · Gunter

§ Orbital elements

Epoch: 2026-09-18T12:54:55.659744Z

Period
94.27 min
Inclination
43.0023°
Eccentricity
0.0001545
Mean motion
15.27583920 rev/d
Perigee alt
482.0 km
Apogee alt
484.1 km
Semi-major
6,861.2 km
B*
6.8083e-4
RAAN
196.3136°
Arg perigee
266.3814°
Mean anomaly
93.6861°
Rev number
3,906

§ Raw data

STARLINK-365291 67457U 26008N   26261.53814421  .00018522  00000+0  68083-3 0  99952 67457  43.0023 196.3136 0001545 266.3814  93.6861 15.27583920 39060

JSON: /api/v1/satellites/67457 · /tle

For live sub-satellite position, see the globe view (requires WebGL).

§ Visibility from observer

Set your observer location to see the next 7 days of passes ≥ 10°. The values pass through the URL so the page stays shareable.

No JS? Fill the form by hand. The geolocation button needs JavaScript.